Theta_e
334 335 335 334 334 333 332 333 333 333 333 333 331 331 328 330 331 330 329 332 335 335 332 331 330 330 330 332 334 334 333 333 335 335 334 332 332 335 336 335 334 334 333 334 334 336 337 338 338 337 336 334 332 332 331 331 330 330 330 330 329 329 329 328 328 327 327 327 327 327 327 327 327 327 327 326 326 326 326 326 326 327 327 327 327
335 335 335 334 333 333 333 331 332 331 332 332 330 329 326 326 327 328 329 330 335 334 332 330 329 329 330 331 332 333 333 333 334 334 334 333 333 336 337 336 337 338 337 336 335 335 337 338 338 338 338 336 334 332 331 331 330 331 331 331 329 328 329 329 328 328 328 328 327 327 327 327 327 327 327 326 326 326 326 326 327 327 327 326 326
335 335 334 333 332 331 331 331 330 331 330 330 330 329 326 326 327 327 327 333 332 333 331 330 330 330 330 330 331 333 333 334 335 334 334 334 333 333 336 339 338 338 337 336 336 335 336 337 338 338 338 337 337 336 334 332 332 331 330 330 330 330 329 329 328 328 328 328 328 327 327 327 327 327 326 326 326 326 326 326 326 326 326 326 326
335 334 334 332 331 331 331 330 330 330 330 329 330 330 327 327 329 331 332 332 330 331 331 329 329 329 330 330 330 332 332 333 333 334 332 332 333 333 333 336 338 337 337 338 338 336 336 338 339 339 339 338 338 338 337 333 332 332 332 331 331 331 330 330 330 329 328 328 328 327 327 327 327 327 327 326 326 326 326 325 325 325 325 326 326
335 335 335 331 331 331 331 332 332 332 331 331 332 329 333 332 332 332 330 329 330 330 331 329 328 328 329 330 331 332 333 333 333 333 333 330 332 331 331 331 332 337 338 339 339 339 338 338 338 337 338 338 338 338 338 336 334 333 332 332 332 332 332 331 330 330 329 329 328 328 327 327 327 326 326 326 326 326 325 325 325 325 325 325 325
335 333 332 331 331 331 331 332 333 334 334 334 334 334 332 332 332 331 331 327 327 328 328 328 327 327 328 329 330 330 331 332 330 331 331 330 329 330 330 330 330 331 333 338 338 337 338 337 337 336 337 337 337 336 336 336 336 335 334 333 332 332 332 332 331 330 330 329 329 328 328 328 327 327 327 326 326 326 326 325 325 325 324 324 325
335 333 332 331 331 330 330 332 335 335 337 334 333 332 331 331 332 329 327 326 327 328 328 328 328 327 326 328 329 330 331 330 331 330 330 329 329 330 329 330 329 331 332 330 338 337 337 337 337 337 338 337 337 338 336 337 337 336 334 333 333 333 333 333 332 331 330 329 329 329 328 328 328 327 327 327 326 326 326 326 325 324 324 324 324
334 333 332 332 332 330 330 332 336 336 336 333 331 331 331 331 330 328 326 326 327 326 326 326 327 326 327 328 329 330 329 329 330 329 330 330 329 328 329 329 329 329 335 329 329 334 337 338 338 337 338 338 337 337 337 336 337 337 336 334 334 333 333 333 333 332 331 330 329 329 329 329 329 329 328 328 327 327 326 326 325 325 324 325 325
335 335 334 332 331 330 332 333 336 334 333 332 331 332 330 329 329 330 328 326 326 325 325 326 326 326 327 327 328 329 329 329 328 329 331 329 328 328 329 328 330 338 329 328 327 328 336 336 336 336 337 338 339 337 337 338 337 336 336 336 335 334 334 333 333 333 333 331 330 330 329 329 329 329 329 329 328 328 327 327 326 326 326 325 325
335 335 334 332 332 332 331 332 332 331 331 330 330 330 329 329 327 328 329 327 325 325 324 325 326 326 326 326 326 326 328 329 329 330 329 329 328 328 329 330 331 330 329 327 327 326 327 331 335 336 337 337 338 336 336 337 336 337 336 336 336 335 334 334 334 333 333 332 332 331 330 330 329 329 329 329 329 329 328 328 328 327 326 326 325
334 333 332 333 332 331 330 331 331 330 330 329 328 329 329 328 328 328 328 327 327 326 325 326 326 326 326 326 328 327 329 330 330 329 329 329 330 331 330 329 330 329 329 327 327 325 324 322 322 324 327 336 338 339 337 337 336 337 336 336 335 334 335 334 335 334 333 332 332 332 331 330 330 329 329 330 330 330 330 329 329 328 327 326 326
332 331 331 331 330 329 329 331 330 330 329 328 328 329 328 328 328 328 326 327 327 327 327 326 326 326 326 327 327 328 328 328 328 328 327 330 331 330 329 328 329 328 329 328 327 326 324 324 328 326 327 332 335 336 338 337 337 337 337 336 336 336 335 334 334 334 334 333 332 332 332 331 331 331 331 331 330 330 331 331 330 330 328 327 326
332 331 330 333 329 329 330 330 330 329 329 329 330 329 329 329 328 328 326 325 325 327 328 328 326 325 325 324 324 325 329 327 326 325 326 327 328 329 328 328 328 328 328 328 327 326 326 325 325 325 327 327 329 332 336 336 336 336 336 337 337 337 335 336 334 335 333 333 332 332 331 331 331 331 331 331 330 331 331 331 330 330 329 328 327
331 331 331 330 329 329 329 329 329 329 330 330 330 331 329 328 328 326 327 326 325 327 328 327 323 322 320 320 322 323 325 325 324 324 323 325 325 327 327 328 327 329 329 328 328 329 327 326 325 326 327 327 328 328 329 330 333 336 336 336 338 337 336 335 336 335 334 333 333 332 332 332 332 331 332 332 332 331 331 331 331 330 330 329 328
331 331 331 331 331 329 328 329 329 330 329 328 328 328 328 327 327 326 325 325 326 328 327 324 322 323 322 320 317 316 320 322 324 323 325 323 324 325 327 328 329 328 328 327 326 327 328 326 326 326 324 326 326 326 328 332 334 336 336 335 336 337 337 336 335 336 334 333 333 333 332 331 330 330 330 330 330 330 330 330 330 330 330 329 329
332 333 332 331 331 329 329 330 329 330 329 328 327 327 327 327 327 327 326 323 325 326 328 324 324 322 316 313 316 317 313 316 318 321 323 325 324 325 326 328 329 330 327 326 327 327 326 327 326 325 324 323 324 324 326 327 334 336 336 335 335 336 337 336 336 333 334 333 333 331 329 329 328 327 328 327 329 329 330 330 331 330 330 329 328
332 333 334 332 331 330 330 329 329 329 329 328 327 327 327 328 328 327 326 325 323 324 325 324 325 325 320 315 313 313 312 314 318 319 322 322 324 326 326 328 327 327 327 326 325 326 327 327 325 324 322 322 322 322 322 324 325 331 331 334 334 334 334 334 335 335 334 332 330 328 326 326 326 326 326 325 326 328 329 330 330 330 329 327 325
330 332 334 334 332 331 330 329 329 329 328 328 327 326 326 328 329 328 326 326 325 323 323 324 326 326 323 319 319 313 312 316 317 312 320 321 321 324 325 326 325 325 323 323 325 325 327 326 325 323 320 319 319 319 319 320 325 321 322 328 332 332 329 331 332 332 332 330 328 327 326 325 325 324 324 324 325 326 327 328 328 328 326 324 322
330 331 331 333 333 332 331 330 331 329 329 327 326 326 327 328 328 328 327 326 325 322 323 323 324 324 324 324 323 318 321 318 311 312 313 316 319 319 320 324 325 324 320 324 324 325 325 325 322 320 319 318 318 317 317 320 325 325 327 325 326 327 326 327 331 330 329 328 328 327 326 325 325 324 323 323 323 323 323 323 323 323 322 321 320
330 330 330 330 333 332 332 331 330 329 329 327 326 326 326 328 328 329 327 327 325 324 322 324 323 321 321 321 321 321 322 317 318 316 314 312 313 317 320 318 319 320 321 324 324 324 323 321 319 318 316 316 316 314 313 313 312 313 317 321 323 324 324 324 323 326 327 327 328 328 326 324 324 322 322 321 321 321 321 321 320 320 320 320 319
331 331 332 332 333 332 331 330 330 329 330 327 326 327 326 326 326 327 326 326 325 325 324 324 322 321 321 317 320 319 318 318 319 316 311 311 309 312 310 312 315 317 321 322 323 323 322 320 319 317 317 316 314 312 312 310 311 311 319 320 321 322 321 320 316 315 318 326 326 326 325 324 323 322 321 320 320 320 320 320 319 319 319 318 318
330 330 331 332 332 332 331 329 328 329 329 327 327 326 326 326 326 327 326 326 325 325 325 324 323 322 322 320 317 316 316 316 315 314 315 313 312 312 309 310 310 313 318 319 320 321 320 319 318 317 315 314 313 311 310 310 310 313 316 318 319 320 320 319 316 315 318 322 325 324 324 324 324 323 321 321 321 320 319 319 319 319 319 318 318
329 329 330 331 330 330 329 328 328 329 329 328 327 327 326 326 326 326 326 325 325 324 323 324 323 322 321 322 320 320 317 315 315 315 314 310 310 308 308 311 312 311 314 317 319 319 320 318 317 315 314 312 311 311 309 309 317 318 319 318 319 320 319 316 315 315 320 322 324 325 325 326 325 324 323 322 322 321 320 320 320 320 319 318 317
328 328 329 329 329 330 328 327 328 328 328 328 327 327 327 327 326 326 326 325 325 325 323 323 322 322 321 320 320 320 318 318 318 317 316 314 311 308 308 309 311 309 312 310 315 318 318 317 316 314 313 311 310 310 312 312 314 319 316 318 318 318 317 316 312 312 312 315 318 322 325 326 326 326 325 325 324 323 322 322 321 320 319 319 318
326 328 328 329 329 327 327 327 327 328 328 328 327 328 327 326 326 326 325 324 325 325 324 324 323 323 322 319 320 320 319 319 320 318 316 315 311 309 309 310 307 308 309 309 307 311 314 314 314 313 312 311 312 311 311 312 310 317 316 315 315 315 315 317 316 311 309 311 314 319 323 322 322 322 322 322 323 324 324 323 318 314 317 319 319
326 327 328 327 328 328 328 327 328 327 327 327 327 327 327 326 326 326 325 325 325 324 324 324 324 323 322 321 320 319 319 321 320 319 317 314 310 310 309 308 308 308 307 306 308 309 306 307 310 311 311 310 310 309 309 310 312 318 315 311 313 313 313 315 317 315 313 312 314 316 319 321 321 320 320 320 320 320 318 313 312 310 308 309 312
327 328 327 326 328 328 328 327 326 326 326 326 327 326 326 326 326 326 325 324 324 324 323 323 324 322 321 322 321 319 320 321 321 320 319 316 314 311 310 306 305 306 306 305 307 308 305 303 307 308 309 308 308 309 309 309 312 316 314 309 307 312 312 312 316 317 315 314 312 312 313 315 316 318 318 317 315 311 312 313 310 308 308 309 313
327 328 326 328 327 328 328 326 326 326 326 326 326 325 325 325 325 326 326 327 323 322 322 324 324 323 323 321 321 321 321 321 321 321 320 319 316 313 311 309 305 302 303 303 302 301 306 302 304 306 307 307 308 308 312 311 311 315 312 307 306 308 311 311 314 317 315 313 310 308 308 308 308 309 308 309 310 311 312 312 311 309 308 309 311
327 327 327 328 328 327 327 326 326 326 325 326 325 324 324 325 325 325 326 324 324 323 322 323 324 323 322 322 322 321 321 322 322 322 322 321 317 313 312 310 308 305 301 301 299 298 302 302 301 302 306 306 307 308 310 308 311 310 305 305 305 304 310 311 310 311 310 309 310 309 307 306 306 307 309 312 312 312 314 311 309 309 309 310 312
327 328 327 327 328 330 327 326 326 326 326 326 325 323 323 323 324 324 324 324 323 322 322 323 323 323 322 322 320 320 320 322 322 322 322 321 319 313 311 310 309 306 303 302 299 299 301 301 301 301 304 306 307 308 308 307 314 308 305 304 303 303 309 309 308 305 305 306 306 304 304 304 306 308 310 311 312 310 309 309 308 308 309 312 312
326 326 326 326 327 327 327 327 326 326 326 325 324 323 322 322 323 323 322 322 322 321 321 323 322 323 322 322 319 319 320 321 322 322 322 321 321 318 312 309 308 307 305 302 298 299 303 301 301 304 304 305 307 307 308 307 312 308 303 302 303 307 310 307 306 305 305 305 303 303 305 304 305 306 308 310 311 310 310 310 308 309 311 312 311
324 324 323 325 325 326 327 326 325 325 325 324 323 323 322 322 322 322 322 322 322 321 321 322 324 323 322 321 320 320 320 320 321 322 322 321 320 320 317 310 307 305 304 303 300 300 302 303 303 303 304 305 306 306 305 307 311 310 303 302 303 308 307 303 306 305 305 304 304 304 308 308 305 306 308 310 311 311 310 310 308 310 311 310 309
322 321 322 324 324 326 326 326 325 324 324 323 323 323 322 321 321 321 321 322 321 320 321 321 322 322 322 321 321 320 320 321 322 323 323 321 321 319 318 314 310 306 304 301 299 299 302 304 304 303 304 305 304 304 304 305 307 306 306 302 302 303 303 301 302 305 304 303 303 303 303 304 304 307 308 307 310 310 308 306 305 306 306 307 306
321 321 322 323 324 324 325 325 324 324 324 323 322 322 322 321 320 322 322 321 320 319 319 320 320 322 320 321 321 320 321 322 321 323 323 322 321 320 317 316 313 308 305 302 299 300 300 302 302 303 303 304 301 302 303 303 305 306 303 303 303 302 302 300 300 301 303 304 303 302 302 302 302 303 304 303 304 305 306 304 303 303 304 304 301
320 321 321 322 322 323 323 323 324 324 324 323 322 321 321 321 321 321 322 321 320 319 319 319 321 321 321 321 321 321 322 321 321 322 322 322 322 321 319 317 315 311 306 303 301 300 301 301 302 302 302 302 301 301 302 303 305 307 305 303 303 304 303 301 300 301 302 303 302 301 302 302 302 302 302 302 303 303 303 303 303 303 302 303 300
320 319 320 320 320 320 321 321 322 323 323 323 322 323 323 321 321 321 321 321 321 320 320 320 321 321 322 321 321 321 321 321 320 320 319 319 319 319 317 315 314 310 307 304 304 302 301 301 301 303 302 301 301 301 302 302 302 305 306 304 303 304 303 303 301 301 302 303 302 302 302 302 302 302 302 302 302 302 302 303 303 302 301 301 301
319 317 316 317 318 319 320 321 321 321 321 322 323 322 323 322 322 321 321 321 320 320 320 320 324 322 322 322 321 321 320 320 318 318 317 316 317 316 314 311 311 309 309 305 303 304 302 302 302 302 303 302 303 302 302 300 299 301 304 305 305 304 304 304 303 304 305 304 303 302 301 301 302 302 302 302 302 302 302 302 302 302 301 301 301
316 315 316 318 319 318 319 320 320 318 317 320 322 322 322 323 322 322 322 321 321 320 320 321 323 323 322 322 321 321 320 320 318 316 315 315 315 313 313 312 308 307 306 304 304 304 304 303 303 302 301 302 301 300 302 301 299 299 300 303 304 305 305 304 304 304 304 304 303 303 303 302 302 302 302 302 302 301 301 301 301 301 301 301 301
315 315 316 315 315 315 313 313 312 311 310 311 312 314 317 320 321 322 322 321 320 319 320 321 323 323 322 322 321 321 321 319 318 317 315 314 315 312 313 311 307 307 307 304 305 304 302 302 301 303 303 303 302 301 301 302 301 300 299 299 301 304 305 305 305 305 305 304 303 302 302 302 303 303 302 301 301 302 301 301 301 301 300 300 299
314 314 314 314 312 311 309 308 307 307 307 306 306 308 313 316 317 318 320 320 319 318 317 318 321 322 322 322 322 321 320 319 319 317 315 315 313 311 310 311 306 307 307 305 305 304 303 302 302 302 300 302 301 303 303 302 300 300 302 300 299 300 302 305 306 305 306 304 303 304 303 302 301 302 302 302 302 302 302 302 302 302 301 299 298
315 314 313 311 309 307 306 306 304 304 303 302 302 302 309 314 314 314 316 317 317 316 317 319 319 320 320 318 317 318 322 322 315 314 314 313 313 310 309 308 305 307 306 304 305 304 303 303 302 303 301 300 301 302 299 299 300 301 302 302 301 302 302 302 304 306 306 304 304 304 303 302 301 300 300 300 300 302 302 302 302 303 301 299 299
313 312 310 309 308 306 304 302 302 301 300 300 299 297 300 309 313 314 313 313 315 316 317 317 316 315 315 314 316 318 315 313 309 306 305 306 310 312 311 310 308 308 307 306 305 305 305 303 303 303 301 300 301 301 301 301 303 303 302 301 300 302 300 301 301 303 305 305 304 302 304 304 302 301 299 299 301 302 301 301 301 301 301 299 299
311 310 308 306 305 304 303 301 299 298 297 297 294 294 295 304 312 312 312 311 313 315 316 316 314 310 308 309 309 311 309 307 304 300 300 300 301 302 305 308 311 310 308 307 306 306 304 305 303 304 302 301 303 303 303 304 304 303 301 300 302 302 301 299 300 302 303 305 303 303 304 303 301 301 301 300 301 300 300 301 301 301 300 300 299
309 307 305 303 302 301 300 299 297 297 296 295 292 294 295 298 307 313 313 313 312 312 313 312 309 309 311 310 309 311 312 309 304 303 301 297 296 296 296 296 295 296 299 306 304 303 303 305 304 304 304 304 306 304 305 305 306 305 305 304 303 303 302 301 299 302 304 303 303 300 302 301 299 300 300 301 301 301 301 301 300 300 300 300 299
306 304 301 300 299 298 298 297 295 295 294 293 292 294 296 299 304 309 313 313 312 311 310 309 310 310 308 306 303 302 304 311 311 307 303 303 301 301 302 302 301 298 295 296 299 305 303 302 302 303 303 304 305 305 307 309 308 307 305 305 304 303 304 302 303 302 303 302 300 299 299 300 297 298 298 301 301 301 301 300 300 300 300 299 299
302 300 299 297 297 296 296 295 294 294 294 294 292 295 297 300 303 307 315 315 314 312 312 312 310 307 305 302 301 299 299 301 302 308 313 313 312 313 313 311 308 303 298 297 296 297 302 306 305 305 305 305 306 304 307 306 308 307 306 306 303 303 303 304 305 304 304 303 302 299 297 298 297 297 297 299 301 301 301 300 299 299 299 299 299
300 298 297 296 295 295 294 294 295 294 294 293 293 295 297 301 303 307 314 314 312 310 307 304 301 299 298 297 296 296 296 297 299 303 307 307 307 307 308 309 307 303 300 299 298 298 299 300 300 301 301 303 304 304 304 304 304 307 308 308 308 308 309 305 305 306 306 305 301 301 302 301 298 297 298 300 301 300 301 300 299 299 299 299 298
299 298 296 295 294 293 293 294 295 294 294 292 293 295 299 301 304 310 309 307 304 302 301 299 298 297 297 296 295 295 295 295 295 294 297 300 300 299 299 301 304 302 300 300 295 295 297 297 297 297 298 298 299 300 300 300 301 302 304 305 304 304 304 304 304 302 302 302 303 302 301 304 299 302 303 303 303 302 303 301 300 300 299 298 298
298 297 296 296 295 294 294 293 293 292 293 292 292 296 299 301 303 306 303 301 299 298 298 298 298 298 297 295 294 294 293 293 293 292 293 296 296 296 295 295 298 298 296 297 295 294 293 293 293 294 294 294 295 295 295 296 299 300 302 301 301 304 304 303 304 303 306 302 301 307 306 307 302 303 304 302 304 303 303 303 304 301 300 299 298
299 298 297 296 295 295 294 293 293 292 292 293 292 294 297 299 303 304 301 299 297 296 296 296 296 297 300 301 299 293 293 293 291 292 293 296 295 295 294 294 295 294 293 294 297 296 295 295 295 295 295 294 295 296 296 295 295 300 304 300 303 302 303 299 301 303 305 305 305 305 304 308 307 302 304 302 299 301 304 305 304 304 301 299 298
300 299 298 296 295 295 295 295 298 294 293 294 292 292 294 298 302 303 301 299 297 296 295 294 295 294 294 295 297 295 294 292 290 291 292 295 295 295 293 293 292 292 292 292 294 294 295 296 297 298 298 298 299 298 299 296 297 302 302 303 303 301 301 301 301 302 302 299 302 306 307 307 309 307 306 304 303 303 303 301 302 301 300 299 299
Wind_Speed
6 6 5 5 5 5 5 5 4 4 4 4 4 5 4 4 4 3 2 1 2 5 6 5 5 5 7 6 5 4 5 4 4 5 5 5 5 7 11 9 9 10 10 11 11 12 11 11 11 11 11 11 10 9 9 9 9 9 9 9 9 9 9 10 10 9 9 10 10 11 11 11 12 12 12 13 14 14 14 15 15 16 16 16 16
6 6 6 6 5 5 5 4 4 3 4 4 4 4 5 4 3 3 3 2 5 4 6 6 5 5 5 6 5 5 4 4 4 5 5 5 5 5 11 10 8 9 10 10 11 11 11 11 11 10 10 10 10 9 9 9 9 8 9 9 8 8 8 8 9 10 10 10 10 10 11 11 12 12 12 13 13 13 13 15 15 14 14 15 15
7 7 6 6 5 5 5 4 4 4 4 5 4 4 4 5 5 5 3 5 5 5 5 6 5 5 4 6 5 5 5 4 4 4 4 4 4 4 6 8 7 8 9 9 10 10 9 8 9 10 10 10 10 10 9 9 9 9 9 8 8 8 7 8 8 9 9 10 10 10 10 11 11 12 12 12 13 13 13 13 13 14 14 14 14
7 6 7 7 6 5 4 4 5 5 5 5 4 4 4 1 2 4 6 6 5 5 5 6 5 5 5 5 3 4 5 5 4 5 3 2 4 4 4 4 7 7 5 4 5 6 6 6 6 6 7 8 9 10 10 9 9 9 9 9 8 7 7 8 8 8 8 9 10 10 10 11 11 11 11 12 12 12 12 12 13 13 14 14 14
6 7 7 6 6 6 5 5 4 3 5 5 4 3 4 4 6 7 6 6 7 6 5 4 4 3 4 6 5 5 5 5 5 5 3 2 3 4 4 3 3 6 5 4 5 6 5 4 4 4 4 6 6 7 10 10 9 9 9 9 8 8 8 8 8 8 9 9 9 10 11 11 11 10 10 10 11 11 11 11 12 12 13 14 14
7 6 5 5 5 5 4 2 1 2 4 5 4 5 5 7 7 7 5 6 7 6 7 6 3 2 2 4 5 5 5 5 4 5 4 3 3 4 4 4 3 3 3 5 5 4 5 4 3 3 4 4 5 6 7 8 9 10 10 10 10 9 9 8 8 8 9 9 9 10 10 10 10 10 10 10 9 10 10 10 11 11 12 12 13
6 6 5 5 5 5 4 3 2 2 4 5 7 5 6 7 7 7 5 5 5 4 6 6 6 4 3 4 5 5 5 5 2 2 4 4 4 4 4 4 3 3 3 2 4 3 4 4 5 6 5 3 5 6 7 8 8 10 10 10 9 9 9 8 9 8 9 9 9 10 10 10 10 10 10 10 9 9 10 10 10 10 11 12 12
6 6 6 5 5 5 5 3 3 4 5 5 7 6 6 7 7 9 7 5 6 5 4 6 5 5 4 4 5 5 5 5 3 3 3 5 4 4 4 4 3 2 3 3 2 2 4 4 5 5 6 5 3 4 7 8 9 9 10 11 10 9 9 9 9 9 8 9 9 10 10 11 12 11 10 9 9 9 9 9 9 9 10 11 11
6 6 7 6 5 6 4 3 5 5 3 6 6 6 7 7 5 4 8 6 6 7 5 5 5 4 4 4 4 5 5 5 4 4 5 5 4 4 4 3 3 5 3 2 2 1 3 5 6 5 6 6 4 4 5 8 9 8 9 10 11 10 9 9 9 9 9 9 9 9 9 9 10 10 10 10 9 9 8 9 9 9 9 10 10
6 3 3 4 4 5 4 5 6 6 5 3 6 5 6 7 7 3 5 7 6 7 6 5 5 5 4 4 3 3 5 5 4 3 4 5 4 4 4 3 3 3 3 2 1 2 2 3 4 5 4 4 4 2 4 6 7 8 9 9 10 10 10 9 8 9 9 9 9 9 8 8 8 8 8 8 9 9 8 9 10 10 9 10 10
6 5 4 7 6 4 4 5 7 5 6 5 0 4 5 5 8 5 3 3 7 6 6 6 5 5 4 4 4 3 3 4 4 1 3 4 5 4 4 4 4 3 3 2 2 2 2 2 2 2 3 6 5 7 6 6 6 7 8 9 8 8 10 9 9 9 9 8 9 8 7 6 6 7 6 5 7 7 8 9 10 10 10 10 10
7 8 2 1 5 4 5 5 7 7 7 7 4 3 6 8 8 8 7 5 4 5 6 7 6 6 4 5 5 4 5 4 4 2 2 4 4 5 5 4 4 3 3 2 1 1 2 2 2 2 3 6 8 6 6 6 6 6 7 8 9 9 9 9 8 9 7 9 8 7 6 5 3 3 7 5 4 4 7 9 10 11 10 10 10
5 8 8 5 5 5 6 5 5 6 6 8 6 4 4 7 6 5 8 7 3 4 4 7 9 6 4 5 4 4 4 4 4 4 3 4 5 5 4 4 4 4 3 3 2 2 1 2 3 2 4 4 5 7 7 6 6 7 8 8 8 8 8 9 8 8 9 8 7 6 5 6 6 6 5 4 3 4 4 6 7 9 11 10 10
7 5 6 6 6 5 5 6 6 5 5 5 4 4 5 6 6 6 3 7 6 7 7 8 5 7 7 4 3 5 3 2 1 2 2 3 2 4 4 4 4 3 3 4 0 1 2 2 2 4 3 4 4 4 4 5 5 9 9 10 10 10 10 10 11 10 10 10 9 8 10 11 12 13 13 14 13 11 9 6 6 7 9 10 10
5 6 6 5 5 6 6 6 6 6 6 7 6 4 7 8 8 8 7 2 3 5 8 2 6 5 4 5 4 3 2 0 1 1 2 3 2 3 3 3 1 3 5 4 2 1 2 2 3 3 3 3 4 4 4 4 6 9 9 11 12 13 13 13 13 13 13 13 14 15 14 14 14 14 14 13 13 12 9 8 8 8 9 10 11
7 6 5 5 6 6 6 6 6 5 7 8 8 7 6 6 6 7 9 8 5 6 5 2 5 10 5 2 3 2 4 3 3 0 0 2 3 3 2 1 1 1 4 5 5 3 3 3 4 3 3 3 3 4 4 4 8 9 10 9 12 15 16 16 16 17 17 17 17 16 14 14 14 14 13 13 13 12 13 11 10 10 10 12 16
6 6 6 6 5 6 6 6 6 5 6 8 8 8 7 7 8 8 9 10 9 6 7 4 7 3 7 6 2 2 3 3 4 1 0 2 1 6 6 4 4 2 4 4 4 4 5 4 4 3 3 3 3 4 4 4 4 4 6 9 10 12 14 16 16 17 17 16 15 15 15 14 14 14 13 12 12 13 16 17 16 17 18 17 16
5 5 5 6 6 6 6 6 6 6 6 6 6 5 6 6 7 9 8 7 11 8 7 4 7 5 3 0 5 5 7 5 5 4 1 1 0 1 2 2 4 2 3 3 5 5 5 5 4 3 3 3 3 3 3 3 4 4 5 6 9 9 9 13 15 15 15 15 15 15 15 14 14 14 14 13 13 14 15 16 16 16 16 16 16
4 4 3 4 4 5 6 6 6 6 5 6 6 8 7 6 5 7 7 7 6 10 9 7 4 4 3 2 1 1 9 10 5 4 4 0 1 0 0 1 3 4 4 5 5 5 5 5 4 4 3 3 3 3 3 3 4 5 7 8 8 9 10 10 13 14 14 15 15 15 15 14 14 14 14 14 14 14 14 15 15 16 16 16 16
6 4 5 5 5 6 6 5 5 5 6 7 7 6 5 5 6 6 5 6 8 9 8 7 10 6 1 2 0 4 7 3 4 5 6 7 2 1 0 0 2 2 5 6 6 6 6 5 5 4 4 3 3 3 3 4 3 4 5 8 9 9 9 10 10 11 13 14 14 14 14 14 14 14 14 14 14 14 14 15 15 16 15 15 16
5 6 8 8 7 6 5 5 5 5 6 5 5 6 8 8 7 7 7 6 7 6 7 8 6 6 4 1 4 5 3 3 5 4 4 6 2 3 2 3 1 1 5 3 5 6 6 6 5 5 4 3 3 3 3 3 4 4 5 9 10 10 11 10 10 10 10 13 14 14 14 14 14 14 13 13 14 14 14 15 15 15 15 15 14
5 5 6 6 6 5 5 6 6 5 5 5 6 6 6 7 8 8 7 7 6 6 8 7 6 5 4 5 4 4 4 3 3 3 3 2 7 7 4 6 5 3 4 4 5 5 6 6 5 5 4 4 3 4 3 3 3 3 5 10 10 10 11 10 10 10 10 11 13 14 14 14 14 13 13 13 13 13 13 13 14 14 14 14 13
5 5 5 5 3 3 5 5 5 5 5 4 6 7 7 7 7 7 7 7 6 7 5 5 6 6 4 7 7 9 8 5 7 4 5 4 5 3 3 5 7 6 4 4 6 5 6 5 5 5 5 4 3 4 3 3 3 4 8 9 10 10 10 10 10 10 10 10 11 12 13 13 12 12 12 12 12 12 12 12 12 12 13 13 12
5 5 6 5 5 4 3 4 6 6 7 6 6 6 6 6 6 7 6 5 5 6 6 7 6 5 5 5 7 6 5 7 7 7 7 6 8 7 6 4 5 2 3 3 3 7 6 5 5 5 5 4 3 3 3 4 4 7 6 8 9 10 10 9 9 9 9 9 9 10 11 12 12 11 11 11 11 11 11 11 11 11 11 10 10
5 6 7 7 7 6 6 7 7 7 7 7 6 6 7 6 7 7 6 7 7 8 7 8 7 7 6 3 5 5 5 5 7 7 5 6 7 8 3 4 6 5 3 5 3 2 2 3 5 5 5 4 4 5 4 5 4 5 7 6 10 9 10 9 9 9 9 9 8 8 9 10 10 10 10 9 9 9 9 8 8 7 6 6 8
6 7 6 7 7 7 8 9 7 6 6 6 6 5 6 6 7 6 7 7 6 7 7 7 6 5 5 5 5 5 5 6 7 7 7 7 6 9 7 2 4 6 2 2 3 5 1 2 2 2 2 4 4 5 5 5 4 5 7 5 7 9 9 9 8 8 7 7 7 7 7 8 8 9 9 9 8 8 8 7 6 6 6 7 6
7 5 7 7 5 5 7 7 6 6 5 5 5 5 5 5 5 4 5 6 6 6 6 7 7 6 5 6 6 4 5 6 7 6 7 8 8 7 9 9 3 2 3 2 4 4 6 2 2 1 0 1 3 4 6 5 5 7 8 5 4 8 9 9 8 8 8 7 7 7 7 6 6 6 6 6 6 7 6 4 4 5 5 5 5
4 5 8 9 9 7 7 6 6 6 5 5 5 5 6 6 5 4 5 3 6 6 6 6 6 6 6 4 5 5 4 6 6 6 7 7 7 6 7 8 9 5 2 5 3 1 3 4 1 2 3 3 2 3 5 6 5 8 7 4 5 5 8 8 8 7 7 6 7 7 7 6 6 6 6 6 5 5 4 3 4 4 4 4 3
6 4 8 8 9 8 6 7 6 5 5 4 4 4 5 6 5 5 6 4 6 6 6 6 6 6 5 6 6 6 5 4 4 5 5 6 6 7 7 9 8 8 5 6 3 4 4 2 5 4 5 3 3 3 5 5 6 6 4 4 4 4 6 8 8 8 7 7 7 7 7 6 6 6 6 5 4 4 3 5 5 5 4 3 2
6 5 6 8 8 9 8 7 6 5 6 4 3 3 4 5 6 5 5 6 6 5 5 6 5 5 4 4 3 5 4 5 5 4 5 6 7 7 6 5 7 10 6 8 5 3 6 4 2 4 5 5 5 4 4 5 7 7 4 5 4 4 7 8 8 8 8 8 8 8 8 8 7 7 7 7 7 7 7 7 7 6 5 5 5
6 6 7 7 8 9 8 7 6 7 5 4 4 4 4 5 5 5 5 6 6 6 5 5 5 5 5 5 3 3 4 5 4 3 4 5 5 6 5 5 4 3 8 6 5 4 5 8 5 3 7 7 6 4 4 4 6 6 5 4 4 6 8 6 9 9 8 9 8 8 8 9 9 10 10 10 10 10 10 9 9 8 8 8 7
6 7 7 7 8 9 9 9 8 6 6 5 5 5 5 4 5 5 4 5 5 6 6 5 5 5 5 5 4 5 4 4 4 4 4 4 4 5 6 6 4 4 3 6 8 8 6 6 6 5 5 8 7 7 4 4 4 7 4 4 5 7 5 5 8 9 9 10 10 9 10 10 11 11 12 12 13 13 11 11 11 10 10 8 8
7 7 7 8 8 9 9 9 9 7 7 5 5 5 5 4 4 4 4 4 5 5 5 5 4 5 5 5 4 4 4 5 5 5 4 5 4 5 5 5 6 5 6 3 5 2 1 1 3 4 6 6 5 5 7 5 5 4 5 4 5 6 6 6 6 10 11 11 11 12 12 12 13 13 14 14 14 13 13 12 11 11 10 10 10
6 7 7 7 8 8 9 9 8 8 7 6 6 6 6 5 5 4 5 5 4 4 4 5 3 4 4 4 4 3 4 5 4 5 5 5 6 6 5 6 6 6 6 5 4 6 7 1 3 3 4 5 5 5 8 8 7 5 6 6 5 6 7 7 7 8 14 13 14 14 15 15 16 16 16 15 14 13 12 12 11 11 11 11 11
4 6 7 7 8 8 8 8 9 8 8 7 6 6 6 7 7 6 6 6 5 6 6 5 5 4 4 5 5 4 3 4 4 5 4 5 5 6 6 5 6 6 6 6 6 6 8 5 3 5 6 6 6 8 8 7 8 9 8 8 8 7 6 6 7 6 12 16 16 16 17 17 17 16 15 14 13 13 13 12 11 11 12 11 11
6 5 5 6 5 6 7 7 8 8 7 7 6 6 6 7 7 7 7 6 6 6 6 6 6 6 5 5 5 5 4 5 5 4 3 4 5 5 5 5 5 6 7 6 7 8 6 7 5 8 7 7 6 3 6 4 6 7 8 6 4 6 6 6 7 7 9 14 16 17 17 16 15 15 15 15 14 14 13 12 12 12 11 11 11
6 5 4 4 4 5 6 6 6 6 7 7 7 6 5 6 6 6 6 6 6 5 5 6 6 7 6 6 6 5 6 6 4 4 3 4 4 4 5 5 5 5 4 7 5 5 7 9 6 3 4 4 2 2 6 8 6 5 4 6 7 7 6 6 6 8 10 12 14 17 16 15 15 15 15 15 15 15 14 14 13 13 12 11 12
6 6 6 5 6 6 5 5 4 4 4 5 7 8 7 6 6 6 6 6 6 6 5 5 6 6 6 6 6 6 6 7 6 4 4 4 3 3 4 3 4 4 4 5 5 5 9 9 8 5 4 6 4 4 7 7 7 7 6 5 3 5 5 6 8 7 6 7 6 9 11 13 15 15 15 14 15 15 14 13 14 13 13 13 13
6 5 5 6 4 5 4 4 4 4 4 3 2 3 5 6 7 6 6 5 5 5 5 6 5 5 5 5 6 6 6 5 5 5 4 3 4 4 5 4 4 4 4 5 6 6 6 6 4 6 7 5 5 6 5 6 4 4 6 5 7 7 6 8 9 8 7 8 10 13 12 12 13 11 14 16 15 15 15 14 14 14 14 14 14
5 6 7 7 4 5 5 5 4 4 5 4 3 2 2 5 6 6 6 6 5 4 4 4 5 6 6 5 5 5 5 5 5 4 4 4 4 4 1 3 4 5 6 5 6 6 6 5 7 6 5 6 4 1 2 4 4 5 6 7 10 8 9 9 11 10 8 7 9 8 10 11 11 13 14 14 16 17 17 15 16 15 15 15 15
5 7 7 8 8 7 5 5 5 4 5 4 2 2 3 4 4 7 8 8 8 6 5 4 4 5 5 4 3 4 5 7 7 6 6 7 6 5 1 4 5 6 5 4 6 7 6 7 6 3 5 5 6 5 5 6 9 12 10 8 8 8 7 5 8 8 8 7 8 8 7 8 8 8 8 8 11 14 15 17 14 16 17 17 17
8 7 7 7 8 8 7 5 5 4 4 2 2 3 2 3 4 4 5 7 7 8 7 6 4 3 4 4 2 3 6 7 8 9 10 6 3 5 6 6 6 5 6 6 5 6 6 7 7 7 6 7 8 7 7 8 9 5 1 5 8 10 3 5 6 6 7 7 7 8 11 7 8 8 6 9 10 9 10 10 12 14 16 19 18
9 8 8 8 6 6 7 7 6 4 3 2 5 3 2 4 5 4 5 4 5 7 7 7 6 5 6 5 4 6 6 6 5 8 8 9 9 9 8 7 7 7 7 6 4 5 5 4 3 5 7 6 4 4 6 4 3 6 6 4 7 4 4 5 8 7 3 9 8 9 11 7 7 10 10 10 11 8 9 12 18 19 20 18 19
7 7 9 8 7 6 6 6 6 4 3 4 5 3 4 7 6 6 5 5 5 6 5 6 6 7 6 6 4 4 5 5 2 4 7 10 12 13 15 14 15 15 9 4 3 3 4 5 4 4 5 3 2 3 3 2 2 1 4 6 8 8 8 7 6 7 5 6 8 6 10 3 5 8 9 10 10 9 12 16 19 19 19 19 18
7 9 8 8 7 4 5 7 5 3 3 6 5 4 5 8 10 8 6 5 6 5 6 7 7 7 6 6 6 6 5 8 3 3 3 7 9 13 14 16 16 16 16 16 14 6 2 4 5 4 1 1 0 0 1 2 0 2 2 3 4 5 6 5 7 5 7 4 4 4 8 5 5 6 8 11 9 8 10 14 18 18 19 19 20
9 9 8 8 6 5 4 6 6 4 4 8 7 5 6 11 14 11 7 8 7 7 7 7 7 7 5 6 7 6 5 5 5 4 5 7 7 9 9 8 8 11 13 14 13 14 10 7 6 6 3 3 3 3 4 3 4 3 1 2 2 4 4 6 5 6 4 5 8 5 4 6 5 6 9 11 8 7 8 12 17 17 18 19 19
9 9 8 8 6 5 4 4 7 6 5 9 7 7 10 15 16 12 9 9 10 10 9 8 8 8 6 7 8 7 6 6 6 4 6 7 8 8 8 8 7 7 8 8 7 6 5 5 5 4 3 2 2 2 3 2 1 1 1 3 4 4 4 3 3 3 3 6 5 3 7 4 2 5 8 9 8 7 7 10 13 16 19 19 13
8 9 7 7 7 6 4 4 7 7 6 12 8 8 13 16 16 10 10 11 11 10 9 8 7 7 6 6 7 8 7 7 8 11 8 7 8 8 7 5 5 6 7 4 5 6 4 4 4 3 2 2 1 0 1 1 3 2 3 4 3 2 4 5 6 3 3 3 4 5 4 5 3 6 7 6 6 8 6 4 8 10 10 7 8
8 8 8 7 6 6 6 6 8 7 7 11 10 10 14 17 13 10 10 10 10 11 9 7 7 7 7 6 6 7 8 7 8 11 10 11 8 7 6 5 4 5 6 5 4 6 7 6 7 5 4 5 7 6 5 2 0 2 1 4 6 5 6 7 7 5 6 3 1 5 4 6 3 6 7 5 5 6 7 8 7 10 14 16 18
9 7 8 9 9 8 9 9 7 8 8 11 12 9 12 13 14 11 9 11 10 10 9 8 7 8 8 12 8 7 8 6 10 11 10 9 8 6 6 6 6 6 6 5 3 2 4 4 6 6 6 9 10 9 10 11 9 3 4 4 4 4 5 3 5 5 7 5 6 4 3 8 5 3 5 4 1 3 5 5 6 7 10 10 12
8 6 8 10 10 9 9 8 13 11 8 11 15 13 10 12 12 10 10 10 11 8 8 8 6 6 7 8 11 9 7 7 12 12 12 9 8 6 5 7 7 7 4 5 7 9 10 10 10 11 10 12 9 7 8 12 11 8 3 1 3 3 4 5 5 6 7 1 3 1 3 6 5 3 2 5 6 4 2 2 4 3 3 3 2
Wind_Direction
159 159 152 154 152 149 156 172 170 177 170 194 176 174 174 171 167 178 194 167 112 87 94 91 95 103 111 103 97 106 125 142 138 124 119 123 126 131 129 130 122 113 117 123 124 115 117 112 113 116 118 120 123 127 125 121 122 116 108 106 105 102 99 99 100 98 95 90 86 83 84 83 82 81 78 77 77 73 71 73 71 70 71 69 67
161 156 154 153 150 154 154 170 185 171 175 190 196 168 169 167 163 155 167 141 85 98 105 108 111 122 117 118 120 118 125 150 136 120 120 120 133 134 132 134 137 131 131 136 132 123 121 118 115 112 120 129 130 130 132 133 130 122 117 114 109 106 106 103 102 103 102 99 93 89 86 85 82 81 78 77 78 76 73 74 75 75 72 71 70
159 160 156 149 148 155 171 167 176 190 189 202 196 180 169 171 173 168 124 89 107 111 116 118 129 135 135 125 133 126 128 136 127 116 114 118 118 119 125 131 138 139 138 138 134 132 127 125 126 132 125 130 141 137 135 137 135 129 122 118 113 109 110 110 109 107 101 98 97 94 91 87 84 84 83 81 81 79 75 71 69 72 74 75 72
161 163 159 153 154 164 177 176 190 186 188 198 204 200 161 169 133 93 110 120 111 109 121 128 139 151 141 126 130 121 113 113 119 112 108 113 108 96 103 131 128 118 124 143 130 126 107 98 97 120 140 138 139 135 137 140 141 138 130 122 117 112 107 111 116 114 113 111 105 103 99 94 90 86 82 82 81 81 79 76 78 75 72 74 77
170 169 162 155 156 163 175 194 178 168 177 194 199 166 104 105 84 109 116 116 113 109 100 97 119 152 142 133 129 124 123 119 120 118 122 116 100 99 98 112 118 124 120 84 64 64 86 96 109 117 138 143 152 144 143 147 149 146 139 131 124 116 116 113 112 115 115 109 106 106 103 99 96 93 90 86 84 82 82 80 77 76 74 72 72
162 166 156 151 159 160 153 140 153 120 138 125 100 118 122 110 115 111 121 125 120 123 124 118 123 130 117 110 109 111 105 98 105 123 121 111 109 103 106 90 86 86 89 98 94 84 79 80 82 97 123 156 150 166 151 148 151 150 147 139 130 118 110 110 110 112 114 116 113 107 103 101 101 102 101 97 93 88 83 82 79 78 79 76 73
164 156 159 156 156 139 136 164 135 126 133 103 103 96 111 117 125 116 122 116 112 126 128 130 134 136 113 100 109 101 90 106 97 115 125 119 108 105 103 100 85 77 70 60 96 107 94 79 63 62 54 103 153 166 174 165 160 154 151 151 139 131 125 114 116 116 119 123 120 112 107 107 106 104 104 105 103 101 95 89 85 82 79 78 76
163 158 158 167 152 143 165 187 139 114 106 108 103 108 119 122 128 132 130 126 122 119 121 122 127 130 113 106 108 108 115 114 105 135 132 116 111 113 109 107 100 102 103 73 75 114 113 89 61 40 27 29 109 154 167 172 172 161 159 156 152 143 137 131 123 122 124 125 124 118 114 107 102 99 100 106 108 108 105 100 94 87 83 80 75
168 168 159 164 149 150 165 111 75 61 58 107 101 121 129 128 113 126 140 142 134 131 124 124 127 115 100 105 120 129 123 122 131 148 133 120 129 125 121 123 147 131 94 88 72 44 74 60 50 33 20 8 3 134 157 167 172 171 167 162 161 160 153 145 142 138 131 128 122 120 120 114 109 103 99 104 110 110 111 110 105 95 87 83 80
168 144 116 111 146 155 129 112 94 86 60 14 118 133 133 131 114 121 139 130 137 137 135 128 114 112 104 90 71 77 109 114 116 99 121 129 133 133 135 139 125 122 112 106 98 65 46 60 51 32 25 5 17 55 138 150 155 177 169 169 168 170 166 161 153 145 139 135 130 126 127 125 116 111 107 111 114 113 111 110 106 99 93 86 82
139 115 181 175 156 145 126 113 104 106 106 100 357 136 130 123 128 128 92 111 134 138 139 128 114 109 101 96 82 68 61 88 82 140 107 133 141 134 129 145 134 128 131 142 147 117 94 69 46 26 12 44 46 53 81 109 122 145 159 177 171 178 174 174 168 160 155 147 135 130 127 127 136 130 138 138 122 132 121 111 104 99 96 92 86
138 141 129 238 147 134 116 112 125 135 125 126 179 193 142 127 138 136 126 104 91 124 128 118 102 96 94 75 62 83 104 70 118 150 153 134 118 131 151 149 136 139 156 169 153 123 99 83 75 46 37 41 45 51 65 91 120 136 140 148 160 172 176 172 179 164 154 149 138 124 118 96 99 169 171 185 142 118 129 121 111 106 104 99 91
145 149 164 167 142 137 126 119 127 144 142 159 174 177 148 135 132 125 134 125 118 133 139 128 122 98 83 84 73 30 60 115 154 160 168 141 144 152 146 144 152 154 171 155 134 111 95 101 98 53 40 35 30 38 56 78 100 117 118 123 132 149 148 156 157 155 153 149 133 118 103 89 79 87 131 155 144 125 118 110 119 114 109 102 89
148 151 149 154 142 143 134 135 147 157 162 147 152 166 143 131 130 115 123 139 144 164 163 135 130 147 146 123 78 80 39 65 100 111 146 124 160 137 139 142 145 191 106 69 22 102 140 133 84 58 50 49 43 33 37 50 67 85 96 100 102 106 115 120 129 132 134 136 133 117 107 96 88 83 81 80 77 82 92 104 116 121 116 111 99
162 151 144 153 150 144 145 146 155 160 145 139 140 202 161 148 152 147 141 117 127 174 174 189 135 131 112 112 141 121 124 158 43 63 129 137 140 119 87 55 52 185 120 131 194 199 151 118 87 85 70 66 59 53 47 65 76 86 89 95 100 104 109 115 116 119 119 121 112 103 98 89 82 80 79 79 78 75 81 100 114 125 124 111 92
160 153 147 153 155 155 153 154 166 160 155 146 161 187 168 151 155 155 148 147 161 183 202 252 151 136 147 176 133 116 135 213 156 316 9 125 132 107 70 124 160 142 108 158 194 176 131 117 108 98 89 71 60 53 52 60 81 74 83 89 97 102 104 106 108 108 105 103 99 98 95 92 90 86 84 83 77 72 73 91 107 109 110 104 88
159 156 153 164 164 160 162 162 167 167 166 150 164 181 181 168 162 156 169 161 164 171 201 227 186 179 133 125 86 170 221 163 130 83 6 92 90 117 172 212 168 181 195 167 157 139 126 115 109 96 78 68 66 61 61 52 54 58 72 84 94 98 101 103 104 102 101 102 102 98 95 93 91 88 83 83 87 82 80 84 92 96 93 87 81
160 161 157 161 175 171 166 167 181 171 175 154 158 166 176 168 176 169 170 178 163 166 184 222 206 216 241 330 154 168 166 166 149 158 156 268 281 121 155 159 118 171 173 144 140 130 128 120 115 100 83 80 75 69 68 66 66 64 72 76 86 101 106 106 104 106 106 105 104 103 100 98 96 94 91 89 91 89 85 88 89 90 91 88 84
165 170 143 167 179 180 174 178 186 171 155 147 165 177 175 173 168 176 177 168 165 169 181 181 179 260 239 220 189 137 147 149 183 122 126 12 339 273 310 144 152 161 165 155 134 131 125 124 116 110 104 93 84 76 67 66 73 73 76 76 76 87 99 110 115 113 112 110 109 107 105 102 100 98 97 97 96 94 91 90 91 92 92 92 92
165 169 142 189 204 186 177 172 177 166 160 170 172 170 165 174 174 177 167 177 178 175 176 173 177 203 193 160 66 118 143 69 109 145 132 139 164 358 150 152 184 167 149 147 147 139 129 123 120 117 109 91 89 82 78 73 68 68 72 83 86 84 84 90 100 110 114 113 112 109 108 106 103 102 101 99 97 96 96 95 94 93 93 93 93
167 167 171 179 188 189 170 150 167 182 182 166 159 166 175 171 171 173 180 183 185 183 165 179 178 176 138 66 108 127 119 101 124 108 138 135 111 166 144 12 58 136 138 140 143 135 136 139 135 127 120 112 96 89 78 74 73 78 92 96 96 91 90 91 91 98 107 113 113 112 112 111 110 108 105 104 103 103 102 101 100 98 98 97 95
176 168 170 177 183 184 150 156 171 181 192 173 157 164 177 182 183 181 175 170 183 176 181 172 169 168 172 149 129 115 96 102 105 114 68 50 157 172 168 148 147 191 134 150 149 139 135 133 124 126 126 124 110 98 87 85 87 86 100 101 100 99 99 100 103 103 108 115 119 119 118 118 116 113 112 111 109 108 108 108 106 104 102 100 97
176 182 178 180 160 169 151 160 172 184 197 184 178 174 178 183 181 171 175 170 177 177 175 165 159 165 173 162 157 164 168 161 165 162 147 134 99 111 138 162 154 145 192 169 143 143 139 130 132 135 136 126 116 103 102 100 90 107 113 106 107 108 108 110 115 121 124 126 127 126 125 123 123 121 120 119 119 118 115 112 110 109 108 108 106
182 182 193 160 149 180 145 180 191 193 199 194 187 173 170 173 171 176 176 173 170 171 169 166 169 170 173 174 169 160 143 146 163 156 151 159 147 146 144 130 106 124 140 100 100 142 145 140 147 147 142 136 133 134 121 107 117 117 110 115 113 115 115 115 115 113 111 111 113 120 129 129 128 128 126 125 123 122 120 118 117 119 120 117 115
189 185 197 153 162 158 184 191 196 198 195 191 187 171 164 164 168 173 167 173 178 173 172 180 173 170 182 172 150 151 155 152 148 151 138 133 135 133 139 135 137 141 137 137 123 53 73 131 153 152 147 150 151 141 132 123 128 127 122 121 122 119 121 120 117 116 119 123 132 139 140 140 139 135 131 129 127 121 112 95 76 65 68 101 122
187 189 161 114 179 185 185 199 199 188 187 186 180 168 161 162 162 168 172 176 171 170 173 173 174 175 157 153 165 157 151 153 151 140 145 138 150 147 143 102 133 144 134 95 131 117 9 38 39 97 141 166 159 146 133 137 140 133 129 129 125 125 124 125 125 127 130 135 134 135 134 135 138 137 138 133 120 111 102 96 92 84 79 66 56
190 183 118 144 175 184 187 190 188 195 187 187 183 156 150 148 156 166 165 159 161 160 165 166 170 170 169 168 159 154 154 161 154 161 156 162 155 157 145 137 116 122 138 92 152 155 154 75 105 105 310 261 171 152 143 145 152 145 137 128 134 134 132 133 134 133 135 130 125 119 118 118 120 120 115 113 114 119 114 95 104 103 92 79 70
184 172 130 162 166 177 186 191 188 197 200 188 179 160 153 148 150 156 159 150 147 158 168 168 171 172 171 156 147 176 167 166 170 160 165 157 150 153 147 146 147 153 130 135 134 71 155 134 97 163 175 210 225 156 151 143 151 151 138 137 140 146 146 146 144 140 143 145 143 136 133 130 130 135 135 134 134 134 124 127 139 139 133 127 108
178 176 150 158 162 166 182 191 197 207 202 185 171 161 148 149 153 154 153 151 153 162 164 171 175 167 163 166 176 172 180 174 165 159 148 138 152 160 162 156 159 147 158 171 190 140 218 226 147 205 170 185 189 196 160 160 158 151 146 147 153 161 166 158 155 155 158 163 164 160 155 155 154 156 162 160 157 168 170 173 172 175 171 166 153
168 168 160 156 161 164 173 188 203 200 202 176 156 160 147 152 158 160 150 150 150 149 169 167 168 166 159 164 164 171 172 173 182 162 152 152 149 166 169 166 158 163 165 171 202 194 176 223 182 162 175 186 178 193 187 169 167 151 154 159 165 176 180 170 169 171 174 177 176 175 176 177 181 183 187 191 189 191 191 193 197 199 198 194 183
160 165 166 156 157 163 169 180 192 196 194 166 146 155 159 149 155 155 146 149 152 157 168 165 168 159 162 168 165 167 172 185 180 161 148 156 153 155 163 149 173 161 159 140 137 243 176 186 226 190 167 177 175 177 180 176 170 159 161 169 177 185 182 186 184 184 187 188 186 187 189 196 200 201 204 205 205 204 202 203 207 209 207 205 190
166 162 162 162 160 160 164 171 182 190 192 157 146 156 159 159 151 147 152 150 153 160 165 168 160 163 161 169 175 169 173 174 184 182 159 167 159 145 155 165 165 131 139 155 164 189 207 189 178 161 175 163 169 169 178 171 176 169 172 183 183 179 184 198 198 197 197 197 198 198 202 204 207 211 214 215 214 212 210 209 207 211 210 207 194
157 155 162 166 165 163 160 166 175 186 186 157 153 152 158 153 142 147 153 159 160 162 159 170 168 161 167 176 183 181 164 173 192 185 166 162 159 154 152 151 160 160 148 146 150 175 177 77 134 168 156 148 170 186 167 173 174 184 182 195 183 182 194 197 202 206 206 206 206 208 212 213 212 216 218 219 219 216 213 210 209 211 213 207 201
155 154 161 163 165 163 160 165 173 182 180 164 158 156 160 157 155 156 166 165 165 163 164 175 173 169 165 174 196 195 181 181 186 188 176 161 160 155 171 162 163 176 178 143 161 154 198 171 111 86 150 176 163 185 177 177 192 183 187 196 202 200 198 199 201 212 212 212 211 213 215 216 217 218 219 220 222 222 218 213 210 212 216 212 206
162 160 162 164 166 163 160 163 169 176 179 168 163 166 162 161 168 172 171 171 168 168 171 178 177 171 171 183 200 198 183 188 196 200 172 175 170 175 177 173 172 182 188 178 147 171 181 203 155 151 174 189 185 189 196 198 188 183 187 198 202 205 216 205 211 218 216 215 216 217 218 219 219 220 221 223 223 225 223 218 211 213 220 216 210
168 175 169 166 166 165 158 162 166 174 176 165 164 174 175 163 171 178 172 174 174 179 175 173 178 182 185 182 200 193 184 188 200 201 190 168 179 180 173 180 171 184 187 182 179 159 175 152 206 181 184 174 225 210 189 182 189 196 203 205 208 215 217 215 219 227 227 223 226 227 228 228 226 225 224 224 224 224 223 219 213 216 219 217 213
169 155 159 155 157 164 164 168 163 167 178 169 165 171 180 172 172 174 177 175 176 183 180 177 180 183 180 189 189 184 178 184 198 193 186 172 175 169 180 174 179 186 169 178 182 169 146 181 186 183 170 208 201 168 178 179 203 217 217 213 210 214 222 229 229 237 243 236 234 239 241 239 237 234 231 229 226 225 221 217 214 215 215 214 214
155 143 151 161 160 168 170 164 155 141 145 173 177 175 174 173 172 178 180 183 184 180 178 180 182 181 183 189 180 182 176 183 189 189 185 190 169 174 190 185 173 175 171 162 157 180 168 183 161 155 171 186 192 196 192 193 184 198 219 232 233 223 218 237 238 238 233 232 234 240 245 250 250 246 244 241 238 234 229 222 218 216 214 214 214
147 137 131 127 129 120 110 104 99 102 93 82 101 163 178 168 171 176 182 187 189 190 180 180 182 180 182 182 180 180 178 171 163 180 180 184 168 180 190 188 170 161 179 175 160 174 172 154 168 183 177 197 183 194 201 191 201 211 208 202 241 230 214 217 241 238 231 238 236 232 233 234 237 237 238 241 243 242 237 231 227 222 217 215 214
133 131 134 126 103 99 98 94 83 90 95 76 49 36 116 156 162 174 179 179 189 199 186 179 169 177 180 182 178 172 161 161 159 171 149 154 158 161 204 145 161 158 178 171 157 157 156 165 170 180 192 179 221 252 105 140 185 237 220 196 217 224 223 222 225 229 232 226 244 240 234 235 245 242 244 243 242 241 238 236 232 226 222 218 215
128 131 130 121 114 99 85 95 88 72 80 73 52 18 80 118 149 161 169 174 177 169 174 175 169 172 173 148 134 145 157 161 162 163 166 154 146 134 167 147 151 159 149 159 174 157 167 167 189 176 152 180 206 175 161 178 197 210 212 184 223 232 232 242 250 234 229 221 239 244 243 216 229 232 226 236 239 234 239 233 236 230 225 220 215
133 129 120 117 119 122 115 96 89 83 77 69 22 14 330 123 118 115 131 158 158 151 154 155 150 104 73 73 63 113 138 141 142 146 141 144 121 128 153 135 132 133 142 145 155 160 154 162 184 170 174 198 205 197 191 209 211 235 145 184 221 239 229 256 285 253 218 215 233 243 245 225 211 239 215 233 242 215 232 224 228 224 223 220 215
129 126 119 114 108 113 117 117 102 86 66 28 7 30 62 100 108 112 115 122 137 140 144 149 133 101 83 76 79 68 58 45 67 91 105 106 101 99 97 103 117 127 129 123 146 155 142 139 154 160 179 199 226 198 208 216 208 199 210 196 224 261 238 233 257 292 233 194 215 230 253 229 182 227 233 232 240 222 224 229 230 226 225 219 214
120 116 112 110 110 111 110 102 93 86 75 13 5 30 85 95 104 107 110 112 123 127 127 116 110 105 98 86 65 63 74 90 62 46 66 73 74 71 70 68 65 59 63 109 143 99 110 120 118 144 126 167 179 165 176 137 219 219 210 190 204 216 226 222 228 236 259 178 203 212 247 245 169 229 246 242 238 229 226 229 230 227 226 224 216
118 112 111 109 103 96 105 102 85 61 62 6 12 35 74 98 104 99 85 100 105 100 100 100 98 101 100 91 70 45 38 48 57 73 86 72 71 80 82 73 62 64 64 57 50 62 129 108 137 144 105 183 62 299 339 336 135 178 186 230 237 225 217 218 232 252 278 187 174 225 247 256 160 225 238 251 245 236 240 238 235 230 227 223 220
110 104 101 97 92 84 81 93 88 53 42 352 1 37 77 93 96 94 91 86 82 80 82 88 91 82 81 95 88 63 32 34 32 49 81 81 76 72 70 67 66 54 55 54 56 54 57 64 68 68 15 41 35 347 340 4 25 350 348 253 202 203 204 213 224 218 249 160 185 188 237 256 205 201 232 251 246 239 236 238 233 232 229 228 223
111 106 106 100 88 82 71 81 83 56 19 354 358 48 79 95 94 93 90 86 81 77 70 73 79 85 86 89 90 88 65 52 32 51 81 84 84 78 75 70 67 64 55 49 46 48 59 75 85 98 54 49 60 8 331 346 2 293 259 268 281 280 288 280 284 250 267 211 202 153 249 251 175 200 240 247 252 245 238 247 238 233 233 233 235
87 92 76 78 84 75 57 63 78 57 21 6 9 71 100 100 95 90 91 87 87 81 75 70 73 73 74 79 88 79 72 64 40 57 75 89 79 80 77 70 67 60 52 45 74 59 60 77 80 74 65 47 90 312 282 291 316 308 313 305 322 350 349 332 304 305 282 287 191 191 255 262 211 208 254 246 257 261 255 258 261 251 253 245 217
93 87 90 81 71 70 61 51 63 61 35 8 11 84 105 105 96 98 93 91 87 85 76 72 72 71 64 60 68 77 67 56 35 56 67 86 81 79 84 79 72 59 34 9 30 51 49 79 63 59 71 39 22 12 20 40 83 219 282 360 345 340 356 336 312 328 301 324 279 201 244 275 205 211 261 270 232 247 249 238 238 218 212 211 216
85 82 95 85 69 59 56 51 40 57 42 18 17 56 97 105 112 108 105 100 92 92 87 70 71 68 61 62 66 67 67 55 41 50 52 75 77 77 78 73 53 41 15 358 9 68 76 111 60 50 54 30 22 13 13 6 10 41 60 12 306 355 327 315 286 299 303 320 280 208 262 265 286 221 254 291 327 245 230 238 238 247 240 235 227
82 90 81 81 74 59 53 55 46 48 39 26 21 23 60 100 109 112 112 108 102 95 98 89 74 77 64 49 54 61 68 60 53 49 48 64 77 69 82 79 65 48 354 350 13 9 7 12 9 9 10 9 11 11 3 5 12 23 38 316 314 8 323 317 306 314 320 306 285 340 271 294 311 284 309 318 298 274 285 299 287 286 276 268 243